RH
72 73 74 73 72 70 69 71 74 77 78 78 78 76 70 68 67 70 76 77 76 74 73 71 70 76 78 51 38 28 69 71 56 37 29 25 27 28 28 26 22 20 18 15 13 13 13
69 66 65 69 70 70 72 75 74 78 78 79 80 79 79 74 71 72 75 75 75 73 76 71 69 79 89 61 17 13 24 32 24 25 26 25 25 23 24 24 23 18 18 16 17 17 16
64 64 63 63 64 67 68 70 72 74 78 79 80 80 80 79 78 78 77 76 74 73 74 70 70 74 77 47 17 16 16 17 14 14 14 18 21 24 25 27 22 21 25 22 19 19 18
66 65 62 62 68 71 70 67 65 68 72 74 72 80 81 81 81 80 78 75 74 72 73 71 77 77 83 29 25 22 20 14 11 11 12 16 16 24 30 26 25 29 29 32 23 20 17
68 68 64 63 69 72 73 71 71 68 67 74 78 79 81 82 82 80 78 73 72 71 71 75 87 85 73 35 30 23 21 16 11 10 14 9 18 27 30 37 42 38 40 35 27 19 20
62 65 66 64 67 68 70 70 72 73 77 75 74 79 82 81 81 79 77 73 63 66 63 48 55 79 57 32 16 13 17 15 20 19 16 16 16 23 37 43 50 46 38 31 30 21 19
63 62 64 64 63 63 65 69 70 72 75 72 70 73 81 81 80 77 76 64 52 61 60 67 61 49 35 27 22 13 13 16 16 28 19 18 21 22 22 31 30 30 31 31 25 20 20
62 71 69 68 68 68 66 64 70 74 73 69 72 73 78 80 80 77 77 71 51 54 69 43 37 34 30 31 33 23 13 17 24 43 34 22 21 16 14 17 24 27 30 28 22 20 20
66 67 66 65 64 64 65 66 69 73 73 75 74 74 76 82 80 79 70 54 40 48 72 39 30 29 29 21 22 19 15 16 22 34 40 38 29 16 14 16 18 18 24 27 26 22 22
63 62 64 64 67 69 70 68 68 68 70 73 76 78 78 81 85 69 57 37 42 59 97 42 27 19 17 17 27 17 14 17 21 24 30 36 27 22 16 17 18 22 16 18 21 28 46
68 67 66 66 67 72 75 73 74 72 70 70 74 77 79 75 92 78 47 46 44 70 96 13 16 16 15 24 24 22 18 19 24 22 28 30 28 27 24 22 15 19 20 19 20 29 43
63 64 66 65 69 72 72 73 72 73 75 74 72 73 76 74 87 71 52 58 71 93 84 24 26 28 30 29 27 25 24 21 22 23 19 21 17 19 23 18 18 18 24 25 24 38 55
61 64 65 66 70 72 72 73 72 73 74 72 73 74 76 62 88 54 77 76 99 94 16 11 14 28 32 38 36 30 36 30 34 40 34 22 19 16 16 24 21 22 27 57 64 65 60
61 63 66 66 69 71 72 71 72 74 75 78 77 79 80 71 67 66 82 99 94 37 26 15 21 21 35 27 29 32 32 42 33 34 34 35 40 20 16 22 30 28 28 61 66 77 67
61 64 65 66 69 70 69 70 70 73 75 78 76 85 92 75 72 92 95 98 65 39 26 27 23 30 27 27 25 32 36 37 32 31 45 43 37 33 18 14 22 30 35 26 40 48 77
55 62 64 65 67 68 68 69 68 69 70 74 97 96 89 61 84 92 100 77 56 35 30 34 40 31 34 33 44 60 41 50 43 34 35 48 60 35 35 14 19 24 24 36 38 53 64
62 61 63 65 67 67 68 68 68 68 72 74 93 97 70 72 89 100 95 78 44 32 26 30 33 34 38 44 50 51 49 60 63 40 28 42 50 50 45 24 23 31 29 31 33 45 61
64 62 66 68 66 67 67 68 69 69 72 77 90 98 85 85 98 99 95 55 48 41 36 34 29 30 33 35 44 41 70 56 52 50 39 50 48 64 48 49 48 22 25 25 41 39 47
64 64 66 67 68 69 70 68 72 72 71 94 96 92 89 95 98 96 68 53 45 44 40 36 32 29 31 33 41 41 61 40 38 51 55 52 52 59 66 57 49 40 33 31 26 34 41
64 66 69 73 69 68 71 69 71 72 74 91 99 99 87 98 95 93 85 91 79 46 36 29 33 34 35 39 32 48 39 37 42 40 62 56 46 41 55 57 51 36 31 49 53 51 40
63 70 72 71 69 69 69 70 71 71 76 95 99 95 80 97 98 97 79 66 64 88 46 39 37 34 34 43 42 45 37 32 35 50 44 51 60 46 37 30 28 28 25 31 60 53 59
66 73 76 70 68 66 67 68 74 75 77 97 100 99 80 85 66 80 88 88 65 45 48 61 60 40 38 39 35 39 34 38 59 52 52 46 68 56 54 43 32 34 24 25 25 25 27
68 73 70 68 68 66 67 68 72 74 78 98 95 81 92 79 82 86 83 70 91 70 50 38 52 59 65 54 77 69 54 45 55 59 70 64 67 70 70 44 51 60 39 28 25 22 25
65 72 69 68 66 68 72 75 75 74 78 96 92 94 95 94 79 68 56 52 58 66 72 56 56 69 53 68 61 59 57 47 50 46 50 73 72 76 87 65 82 44 28 25 29 30 34
64 69 70 69 67 67 73 77 76 76 76 96 93 94 93 98 70 60 53 49 54 65 64 56 48 56 84 81 89 71 72 66 57 46 47 51 70 93 89 86 59 37 32 44 52 66 49
60 64 70 71 74 71 75 78 76 77 73 94 96 94 98 100 81 52 63 74 79 80 72 62 49 78 80 98 96 90 90 67 60 56 39 42 62 86 90 87 84 60 49 32 35 83 52
63 68 71 72 71 71 72 74 80 75 75 91 92 88 98 100 77 63 78 75 62 66 88 79 71 72 80 98 96 92 85 57 84 75 74 66 76 83 88 97 75 46 49 38 64 78 54
64 69 74 74 70 74 73 74 75 76 77 89 87 83 95 98 78 66 64 70 64 67 79 76 86 88 96 97 92 84 90 71 89 100 75 69 85 91 88 94 84 38 40 62 62 56 46
67 69 73 72 74 77 78 80 77 76 76 81 93 83 84 98 94 76 69 63 60 57 73 79 87 99 94 99 85 85 96 88 74 96 92 80 69 85 73 72 54 50 59 60 50 50 51
Wind_Speed
10 11 12 12 12 11 12 13 12 11 11 11 12 14 15 16 17 18 17 19 21 24 24 23 22 20 10 4 15 4 9 9 6 4 7 9 8 8 13 8 11 15 15 16 18 14 11
10 10 10 10 11 12 13 13 13 12 12 13 13 13 14 17 18 18 19 20 22 24 23 22 20 15 3 9 8 9 1 5 8 8 7 8 9 11 10 11 12 12 14 16 8 9 7
9 10 11 12 13 12 12 12 13 14 13 14 15 15 15 17 18 18 20 22 24 25 23 22 19 6 7 25 5 17 20 10 8 7 7 9 12 8 6 8 11 9 12 14 14 8 10
10 11 12 12 11 11 11 12 14 15 16 15 16 16 16 15 16 19 21 25 27 28 23 21 11 4 11 10 10 13 11 9 8 8 11 8 8 6 4 6 10 7 7 7 5 6 12
13 10 11 13 13 11 10 12 13 16 16 15 16 16 16 16 16 19 23 27 34 28 17 12 5 5 12 11 5 13 12 10 9 9 9 11 6 3 4 3 5 4 11 15 15 11 11
13 14 14 14 15 16 13 13 13 15 16 14 17 17 18 16 16 21 25 31 33 20 7 7 6 4 10 8 4 4 1 5 6 6 6 7 4 4 2 3 11 7 12 13 17 13 14
12 14 14 15 15 16 16 13 14 15 14 15 16 18 18 16 18 22 18 11 7 3 3 8 9 9 14 8 15 7 5 7 7 8 9 9 7 11 11 13 14 11 13 17 13 12 11
14 14 12 13 15 16 17 18 15 16 14 14 14 15 17 16 19 22 13 4 7 4 12 16 23 29 28 21 18 25 14 8 8 13 8 10 21 15 13 12 17 19 20 20 19 14 15
14 13 15 16 17 18 17 17 16 15 16 15 15 15 15 15 18 12 4 15 10 10 6 13 18 17 16 15 21 34 10 12 14 14 15 17 8 18 17 17 18 18 17 12 17 14 13
12 14 16 17 17 17 18 18 18 18 17 16 15 15 13 14 10 5 8 13 10 4 5 12 11 11 12 9 9 17 23 14 9 16 12 17 15 19 20 20 18 18 12 16 18 9 8
14 15 16 16 16 15 18 17 14 14 14 14 14 15 13 6 7 5 9 16 11 4 6 9 9 5 6 14 3 5 9 13 22 17 9 17 8 13 20 18 20 15 11 13 13 11 7
15 15 15 16 15 15 17 15 13 14 13 13 15 15 15 6 4 11 9 16 3 4 10 8 8 9 8 11 7 0 4 5 3 12 15 17 11 8 6 12 12 6 4 8 9 2 10
15 13 15 17 14 14 14 15 18 14 14 15 14 14 11 7 5 8 6 8 3 6 10 10 7 11 17 13 13 12 10 12 8 6 14 13 21 17 11 10 13 8 7 1 3 2 6
12 13 13 14 17 15 16 14 15 13 14 14 15 15 6 6 8 7 2 4 9 10 17 19 17 14 12 14 19 16 11 10 15 12 4 9 5 17 11 16 8 6 8 7 8 6 3
15 14 13 13 13 13 13 13 14 14 14 14 16 4 4 5 9 3 4 3 5 7 5 17 21 8 5 11 4 3 11 7 10 16 9 4 7 3 8 20 10 6 10 9 10 4 4
15 14 13 14 13 14 14 14 14 14 12 13 2 4 6 9 7 5 5 11 12 13 20 18 15 8 10 13 11 15 5 4 8 3 4 2 3 4 11 14 12 11 4 8 6 13 7
14 14 15 14 13 13 14 14 13 13 12 12 2 4 7 8 5 5 7 6 12 18 17 11 15 15 14 8 7 4 10 9 10 13 8 1 1 5 6 2 15 5 11 2 3 9 5
14 14 15 13 13 13 13 13 12 12 9 4 2 4 3 7 5 3 3 5 8 21 21 19 7 7 10 14 6 11 5 2 5 16 7 6 1 1 7 10 9 9 7 9 9 5 3
15 14 13 14 15 14 14 12 13 11 7 3 3 5 2 10 4 3 6 14 18 20 20 12 10 5 9 9 7 8 3 2 7 9 8 7 4 1 2 13 15 2 1 3 9 7 10
14 13 14 15 14 13 13 13 11 9 7 2 2 5 3 4 3 3 5 6 12 14 16 15 8 10 7 8 10 6 8 4 2 3 7 4 3 5 3 3 7 7 11 8 10 4 6
14 14 15 13 13 13 12 11 11 8 6 3 2 4 3 5 4 9 10 10 13 8 5 10 3 6 8 9 10 7 12 11 15 3 4 5 4 6 6 9 10 12 10 3 8 12 3
14 15 14 13 14 14 13 13 9 8 8 2 2 2 5 4 7 8 3 4 12 14 5 9 10 8 7 8 10 10 12 8 3 8 1 3 5 7 7 5 8 14 12 8 9 10 5
15 14 14 14 15 14 14 13 10 9 9 2 3 4 2 5 6 5 3 13 11 18 10 6 10 11 11 7 5 12 13 3 1 5 7 3 1 3 4 7 10 6 7 11 11 8 4
16 16 16 16 15 14 16 15 12 13 12 3 3 2 1 5 4 6 12 15 15 13 11 9 8 2 5 10 9 11 10 4 3 4 4 3 2 1 3 5 4 6 8 7 5 4 3
17 17 18 17 16 15 13 12 12 13 13 4 2 2 2 4 5 10 14 13 12 10 16 11 13 1 5 6 4 4 5 4 7 8 8 6 2 1 1 1 8 10 4 4 3 7 8
19 19 18 17 16 15 14 13 13 13 14 3 3 3 2 3 6 13 11 7 6 4 10 7 10 8 5 4 2 2 4 6 8 6 18 12 5 4 0 3 5 0 11 8 5 3 7
19 19 17 17 16 15 15 15 13 14 14 5 3 6 2 4 6 9 4 6 6 4 4 5 11 7 3 2 3 4 4 3 4 4 5 12 6 9 5 3 6 2 10 7 2 2 1
19 19 19 18 18 16 16 16 16 15 15 9 4 6 5 3 8 10 14 12 8 4 3 5 7 5 3 1 2 4 3 4 1 3 3 9 7 5 4 3 7 3 6 2 5 4 3
20 20 20 20 19 18 18 18 18 18 18 15 7 6 6 4 5 9 10 10 12 9 4 4 3 2 3 4 3 3 3 4 4 4 4 5 7 6 8 7 5 3 1 5 2 3 3
Wind_Direction
11 11 3 354 352 350 345 343 338 334 323 319 316 317 323 326 328 328 325 321 320 320 319 321 322 327 333 269 253 248 187 190 168 190 222 220 221 242 238 240 245 247 255 261 259 256 256
346 349 349 354 353 354 352 348 337 334 328 323 321 313 315 317 320 322 320 318 315 314 311 314 317 325 236 268 258 279 341 227 223 205 233 239 235 236 256 239 242 257 257 265 278 283 280
336 334 332 335 330 330 339 342 340 338 334 333 331 328 318 313 317 316 314 310 306 304 304 306 307 281 247 246 284 316 307 275 272 263 249 249 255 247 302 293 255 270 289 283 279 272 288
323 322 326 328 325 322 326 328 327 324 322 327 330 326 321 314 314 314 311 306 300 297 297 294 284 255 248 256 254 278 286 296 288 271 277 282 268 271 251 291 298 303 288 275 279 271 265
336 318 318 325 326 319 319 321 328 326 318 322 324 324 321 319 316 311 308 306 297 292 282 267 249 216 260 301 234 244 231 241 254 258 255 271 313 232 306 284 304 258 260 272 281 270 269
322 325 323 324 323 329 315 317 325 340 326 326 329 331 325 319 318 312 313 312 292 292 246 215 241 286 259 240 213 229 277 263 279 253 236 220 263 226 195 190 225 218 251 254 257 257 253
321 316 315 313 318 321 323 319 323 327 336 333 333 334 331 325 320 312 327 329 1 358 299 230 214 245 291 284 315 298 226 256 237 246 228 209 204 215 206 219 238 258 258 263 277 289 299
321 326 322 327 325 318 319 313 318 318 314 321 321 327 327 325 314 312 312 265 296 275 298 262 259 266 258 276 284 270 290 279 228 220 231 235 230 217 224 234 232 235 246 260 276 285 293
317 322 322 322 320 316 314 319 321 324 324 320 316 316 319 320 308 312 265 285 305 24 279 274 230 242 238 203 240 258 213 237 238 240 220 232 232 209 220 231 242 245 241 250 252 255 255
310 319 320 316 318 316 313 307 306 308 314 317 317 308 313 320 308 299 288 337 342 19 278 274 214 240 212 218 257 220 218 209 216 242 238 239 233 234 215 232 226 245 248 254 266 268 280
316 307 309 310 309 312 314 304 313 310 306 300 313 313 308 322 297 303 296 334 314 29 281 254 178 162 168 180 299 193 170 198 222 228 189 234 226 228 237 230 217 235 225 248 268 235 255
304 304 309 312 308 310 308 295 297 299 297 301 302 311 309 294 213 251 313 316 333 235 246 263 149 179 154 205 259 111 138 193 210 232 252 258 283 264 251 273 260 235 245 242 260 104 261
295 307 310 301 301 297 299 293 302 289 297 302 307 304 300 271 242 296 32 301 225 227 267 233 259 204 190 202 221 232 184 190 205 180 226 254 253 266 261 290 288 221 218 179 338 256 242
297 296 302 303 303 281 289 299 307 295 301 300 299 308 250 241 257 275 331 243 227 230 242 309 340 334 260 214 219 211 201 196 207 243 218 198 264 216 231 216 212 213 184 159 205 206 247
287 285 289 300 307 302 307 301 304 296 288 290 309 267 229 227 247 252 266 215 227 229 277 344 322 289 243 204 263 305 211 219 212 203 217 250 226 18 237 217 204 217 237 203 236 271 98
287 298 299 301 302 305 302 301 298 303 301 308 288 302 251 238 214 234 232 237 242 288 325 329 309 303 335 10 7 0 237 12 292 39 131 224 279 262 310 193 226 193 197 195 201 233 248
285 291 293 292 295 298 301 299 300 303 302 307 347 295 266 202 137 224 217 225 280 277 291 292 310 327 338 11 348 269 323 12 2 340 326 308 204 299 10 148 194 187 220 108 11 248 201
280 282 286 285 289 292 293 293 296 294 291 293 256 264 282 87 190 221 214 253 249 283 295 290 257 297 304 322 326 342 339 208 64 325 341 324 144 61 285 357 328 226 208 175 209 224 250
275 278 277 281 284 286 291 287 295 281 261 314 269 265 230 101 203 234 264 260 251 263 273 290 302 300 319 309 319 345 93 353 60 37 346 317 326 146 68 8 341 353 227 262 216 198 234
276 272 280 274 278 284 281 283 292 265 252 136 291 301 288 140 193 278 288 279 290 281 261 275 294 320 315 314 305 312 292 20 34 87 291 334 322 33 77 151 210 308 2 25 353 224 219
266 271 274 271 273 277 280 281 274 262 230 106 216 251 275 335 15 304 294 280 287 303 303 319 294 272 289 299 308 304 310 320 344 279 340 10 334 353 349 335 331 319 326 33 331 294 327
266 268 267 267 274 274 275 272 264 245 183 162 262 244 341 311 314 356 276 300 275 289 234 310 313 288 289 261 266 287 301 322 22 337 201 340 331 345 323 334 296 293 281 277 280 286 269
265 266 267 270 269 270 269 266 244 231 172 160 231 277 281 290 332 333 285 324 321 320 310 252 263 293 293 316 8 300 307 189 223 324 338 41 39 360 301 332 331 302 246 258 265 276 273
262 260 264 265 265 268 266 252 244 235 199 173 226 14 288 280 264 275 288 290 287 315 306 293 295 278 305 6 315 284 289 238 227 263 278 357 11 36 286 355 257 255 319 303 205 314 350
264 257 263 266 263 263 272 254 244 233 218 192 208 178 258 275 280 285 290 302 329 326 290 297 289 277 91 21 315 248 249 257 235 218 237 219 187 16 167 206 301 310 338 33 69 48 26
257 258 259 266 257 260 258 255 244 233 226 186 208 196 247 275 233 254 313 304 303 294 307 288 305 157 117 119 330 281 236 207 198 211 208 204 176 139 120 191 235 202 358 21 1 111 17
255 255 259 259 259 257 253 252 247 235 230 194 217 181 206 252 261 270 261 297 330 319 275 299 325 348 66 121 209 198 253 259 258 229 153 191 181 192 206 266 282 180 296 317 22 186 244
251 255 260 253 258 254 249 250 249 245 236 221 212 207 179 235 267 266 280 283 294 277 291 312 352 354 358 160 242 238 254 264 228 276 211 165 161 181 180 215 248 309 239 240 202 241 218
251 256 257 258 252 248 246 245 246 243 238 224 231 195 190 215 274 314 278 278 262 273 313 9 259 316 352 319 283 314 308 344 332 302 278 168 181 161 182 206 265 17 153 280 246 264 107